When you browse on this site, cookies collect data to enhance your experience and personalize the content and advertising you see.
Visit our Privacy Policy to learn more. By continuing to use the site, you agree to this use of cookies and data.

Previsão horária em Bafatá

Hoje, 24 Setembro, Quinta-feira

Tempo Temperatura Precipitação Vento Pressão Humidade
00:00 +26°C° 0.3 mm 1 m/s 758 mmHg 97%
01:00 +26°C° 0.3 mm 1 m/s 757 mmHg 98%
02:00 +26°C° 0.3 mm 1 m/s 757 mmHg 98%
03:00 +26°C° 0.3 mm 1 m/s 757 mmHg 98%
04:00 +25°C° 0.3 mm 1 m/s 757 mmHg 98%
05:00 +25°C° 0.3 mm 1 m/s 757 mmHg 98%
06:00 +26°C° 0.3 mm 1 m/s 757 mmHg 95%
07:00 +27°C° 0.3 mm 1 m/s 758 mmHg 93%
08:00 +26°C° 0.3 mm 0 m/s 758 mmHg 90%
09:00 +29°C° 1.8 mm 1 m/s 758 mmHg 86%
10:00 +30°C° 1.8 mm 1 m/s 758 mmHg 81%
11:00 +31°C° 1.8 mm 1 m/s 758 mmHg 76%
12:00 +31°C° 1.7 mm 1 m/s 757 mmHg 77%
13:00 +31°C° 1.7 mm 2 m/s 757 mmHg 78%
14:00 +31°C° 1.7 mm 2 m/s 756 mmHg 78%
15:00 +30°C° 0.5 mm 1 m/s 756 mmHg 81%
16:00 +30°C° 0.5 mm 1 m/s 756 mmHg 83%
17:00 +29°C° 0.5 mm 1 m/s 756 mmHg 85%
18:00 +28°C° 0.4 mm 1 m/s 757 mmHg 87%
19:00 +28°C° 0.4 mm 1 m/s 757 mmHg 89%
20:00 +27°C° 0.4 mm 1 m/s 758 mmHg 91%
21:00 +26°C° 0.1 mm 1 m/s 758 mmHg 92%
22:00 +26°C° 0.1 mm 1 m/s 758 mmHg 93%
23:00 +26°C° 0.1 mm 1 m/s 758 mmHg 94%

Amanhã, 25 Setembro, Sexta-feira

Tempo Temperatura Precipitação Vento Pressão Humidade
00:00 +25°C° 0 mm 1 m/s 758 mmHg 95%
01:00 +25°C° 0 mm 1 m/s 758 mmHg 95%
02:00 +25°C° 0 mm 1 m/s 758 mmHg 96%
03:00 +25°C° 0 mm 1 m/s 758 mmHg 96%
04:00 +24°C° 0 mm 1 m/s 758 mmHg 96%
05:00 +24°C° 0 mm 1 m/s 758 mmHg 96%
06:00 +25°C° 0 mm 1 m/s 758 mmHg 95%
07:00 +25°C° 0 mm 1 m/s 758 mmHg 93%
08:00 +25°C° 0 mm 1 m/s 759 mmHg 92%
09:00 +27°C° 0 mm 1 m/s 759 mmHg 87%
10:00 +28°C° 0 mm 1 m/s 759 mmHg 82%
11:00 +29°C° 0 mm 1 m/s 758 mmHg 77%
12:00 +30°C° 0 mm 1 m/s 758 mmHg 72%
13:00 +32°C° 0 mm 1 m/s 757 mmHg 68%
14:00 +33°C° 0 mm 1 m/s 757 mmHg 63%
15:00 +32°C° 0 mm 1 m/s 757 mmHg 68%
16:00 +31°C° 0 mm 1 m/s 757 mmHg 73%
17:00 +30°C° 0 mm 1 m/s 757 mmHg 78%
18:00 +29°C° 0 mm 1 m/s 757 mmHg 80%
19:00 +28°C° 0 mm 1 m/s 758 mmHg 81%
20:00 +27°C° 0 mm 1 m/s 758 mmHg 83%
21:00 +26°C° 0.1 mm 1 m/s 758 mmHg 84%
22:00 +26°C° 0.1 mm 1 m/s 759 mmHg 86%
23:00 +26°C° 0.1 mm 1 m/s 759 mmHg 87%

Depois de amanhã, 26 Setembro, Sábado

Tempo Temperatura Precipitação Vento Pressão Humidade
00:00 +25°C° 0.1 mm 1 m/s 758 mmHg 89%
01:00 +25°C° 0.1 mm 1 m/s 758 mmHg 91%
02:00 +25°C° 0.1 mm 1 m/s 758 mmHg 94%
03:00 +25°C° 0.1 mm 2 m/s 757 mmHg 94%
04:00 +25°C° 0.1 mm 2 m/s 757 mmHg 95%
05:00 +25°C° 0.1 mm 2 m/s 757 mmHg 95%
06:00 +26°C° 0 mm 2 m/s 757 mmHg 92%
07:00 +27°C° 0 mm 1 m/s 757 mmHg 89%
08:00 +28°C° 0 mm 1 m/s 757 mmHg 86%
09:00 +29°C° 0 mm 1 m/s 758 mmHg 83%
10:00 +30°C° 0 mm 1 m/s 758 mmHg 79%
11:00 +31°C° 0 mm 2 m/s 758 mmHg 76%
12:00 +32°C° 0 mm 2 m/s 757 mmHg 74%
13:00 +34°C° 0 mm 2 m/s 756 mmHg 72%
14:00 +34°C° 0 mm 2 m/s 755 mmHg 70%
15:00 +34°C° 0.1 mm 2 m/s 755 mmHg 74%
16:00 +32°C° 0.1 mm 2 m/s 755 mmHg 78%
17:00 +31°C° 0.1 mm 1 m/s 755 mmHg 82%
18:00 +30°C° 0.2 mm 2 m/s 755 mmHg 85%
19:00 +29°C° 0.2 mm 2 m/s 756 mmHg 89%
20:00 +27°C° 0.2 mm 3 m/s 756 mmHg 93%
21:00 +27°C° 0.2 mm 3 m/s 756 mmHg 94%
22:00 +26°C° 0.2 mm 2 m/s 756 mmHg 94%
23:00 +26°C° 0.2 mm 2 m/s 757 mmHg 94%

27 Setembro, Domingo

Tempo Temperatura Precipitação Vento Pressão Humidade
00:00 +26°C° 0.9 mm 2 m/s 756 mmHg 96%
01:00 +26°C° 0.9 mm 2 m/s 756 mmHg 97%
02:00 +25°C° 0.9 mm 2 m/s 756 mmHg 98%
03:00 +25°C° 0.1 mm 2 m/s 756 mmHg 98%
04:00 +25°C° 0.1 mm 2 m/s 756 mmHg 98%
05:00 +25°C° 0.1 mm 2 m/s 756 mmHg 98%
06:00 +26°C° 0.1 mm 2 m/s 756 mmHg 96%
07:00 +27°C° 0.1 mm 2 m/s 756 mmHg 93%
08:00 +28°C° 0.1 mm 3 m/s 756 mmHg 91%
09:00 +29°C° 0 mm 3 m/s 756 mmHg 87%
10:00 +30°C° 0 mm 3 m/s 756 mmHg 83%
11:00 +30°C° 0 mm 3 m/s 756 mmHg 79%
12:00 +31°C° 0 mm 3 m/s 755 mmHg 76%
13:00 +33°C° 0 mm 3 m/s 755 mmHg 73%
14:00 +33°C° 0 mm 3 m/s 754 mmHg 70%
15:00 +33°C° 0 mm 3 m/s 754 mmHg 74%
16:00 +31°C° 0 mm 2 m/s 754 mmHg 78%
17:00 +30°C° 0 mm 2 m/s 754 mmHg 82%
18:00 +29°C° 0 mm 2 m/s 755 mmHg 83%
19:00 +28°C° 0 mm 2 m/s 756 mmHg 84%
20:00 +27°C° 0 mm 2 m/s 756 mmHg 86%
21:00 +27°C° 0 mm 2 m/s 756 mmHg 88%
22:00 +27°C° 0 mm 1 m/s 756 mmHg 90%
23:00 +26°C° 0 mm 1 m/s 757 mmHg 92%

28 Setembro, Segunda-feira

Tempo Temperatura Precipitação Vento Pressão Humidade
00:00 +26°C° 0 mm 1 m/s 756 mmHg 94%
01:00 +26°C° 0 mm 1 m/s 756 mmHg 95%
02:00 +23°C° 0 mm 0 m/s 756 mmHg 97%
03:00 +25°C° 0 mm 1 m/s 756 mmHg 97%
04:00 +25°C° 0 mm 1 m/s 756 mmHg 97%
05:00 +25°C° 0 mm 1 m/s 756 mmHg 97%
06:00 +26°C° 0 mm 1 m/s 757 mmHg 93%
07:00 +27°C° 0 mm 1 m/s 757 mmHg 90%
08:00 +28°C° 0 mm 1 m/s 757 mmHg 86%
09:00 +30°C° 0.1 mm 1 m/s 757 mmHg 79%
10:00 +31°C° 0.1 mm 1 m/s 757 mmHg 73%
11:00 +32°C° 0.1 mm 1 m/s 757 mmHg 67%
12:00 +32°C° 0 mm 1 m/s 756 mmHg 67%
13:00 +32°C° 0 mm 1 m/s 756 mmHg 67%
14:00 +32°C° 0 mm 1 m/s 755 mmHg 67%
15:00 +31°C° 0 mm 1 m/s 755 mmHg 72%
16:00 +30°C° 0 mm 1 m/s 755 mmHg 77%
17:00 +29°C° 0 mm 1 m/s 755 mmHg 83%
18:00 +28°C° 0 mm 1 m/s 755 mmHg 85%
19:00 +27°C° 0 mm 1 m/s 756 mmHg 87%
20:00 +26°C° 0 mm 1 m/s 757 mmHg 89%
21:00 +26°C° 0.1 mm 1 m/s 757 mmHg 90%
22:00 +26°C° 0.1 mm 1 m/s 757 mmHg 91%
23:00 +25°C° 0.1 mm 1 m/s 757 mmHg 92%

29 Setembro, Terça-feira

Tempo Temperatura Precipitação Vento Pressão Humidade
00:00 +25°C° 0.1 mm 1 m/s 757 mmHg 93%
01:00 +25°C° 0.1 mm 1 m/s 756 mmHg 93%
02:00 +23°C° 0.1 mm 0 m/s 756 mmHg 94%
03:00 +23°C° 0 mm 0 m/s 756 mmHg 94%
04:00 +23°C° 0 mm 0 m/s 756 mmHg 95%
05:00 +25°C° 0 mm 1 m/s 756 mmHg 95%
06:00 +26°C° 0.2 mm 1 m/s 757 mmHg 93%
07:00 +27°C° 0.2 mm 1 m/s 757 mmHg 90%
08:00 +28°C° 0.2 mm 1 m/s 758 mmHg 88%
09:00 +29°C° 0 mm 1 m/s 757 mmHg 83%
10:00 +31°C° 0 mm 1 m/s 757 mmHg 78%
11:00 +32°C° 0 mm 1 m/s 757 mmHg 74%
12:00 +33°C° 0 mm 1 m/s 756 mmHg 70%
13:00 +34°C° 0 mm 1 m/s 756 mmHg 66%
14:00 +35°C° 0 mm 1 m/s 755 mmHg 63%
15:00 +34°C° 0 mm 1 m/s 755 mmHg 66%
16:00 +31°C° 0 mm 0 m/s 755 mmHg 70%
17:00 +31°C° 0 mm 0 m/s 755 mmHg 73%
18:00 +29°C° 0.1 mm 0 m/s 755 mmHg 77%
19:00 +28°C° 0.1 mm 0 m/s 756 mmHg 80%
20:00 +27°C° 0.1 mm 0 m/s 756 mmHg 83%
21:00 +26°C° 0.4 mm 0 m/s 756 mmHg 86%
22:00 +28°C° 0.4 mm 1 m/s 756 mmHg 89%
23:00 +27°C° 0.4 mm 1 m/s 757 mmHg 93%
Mostrar mais